contact:dominique.lefevre@mio.osupytheas.fr, maurice.libes@osupytheas.fr, didier.mallarino@osupytheas.fr
Project:EMSO http://www.emso-fr.org/EMSO-France
Depth: 2436.0 m
Title:EMSO Ligure Ouest : Data MII capteur AQUADOPP
Date,Latitude,Longitude,X_East,Y_North,Z_Up,Amplitude_X,Amplitude_Y,Amplitude_Z,Batterie,SoundSpeed,Heading,Pitch,Roll,Pressure,TIS,Speed,Direction
, degrees North, degrees East, m.s-1, m.s-1,m.s-1, 1, 1, 1, Volt, m.s-1, degree, degree, degree, dbar, degree_C, m.s-1, degree
2023-07-13T00:04:03,42.805,6.029,-0.003,-0.005,-0.017,102.0,103.0,101.0,13.3,1505.2,327.8,-0.7,1.9,2471.442,13.28,0.005,211.0
2023-07-13T00:07:03,42.805,6.029,0.0,-0.012,-0.006,103.0,103.0,102.0,13.4,1505.2,340.0,-0.8,1.8,2471.462,13.29,0.012,180.0
2023-07-13T00:10:03,42.805,6.029,0.024,-0.015,-0.007,103.0,103.0,102.0,13.3,1505.2,350.1,-0.8,1.8,2471.464,13.29,0.028,122.0
2023-07-13T00:13:03,42.805,6.029,0.012,-0.017,-0.033,102.0,103.0,102.0,13.4,1505.2,338.7,-0.7,1.8,2471.45,13.29,0.02,144.8
2023-07-13T00:16:03,42.805,6.029,-0.001,-0.001,0.009,103.0,103.0,101.0,13.3,1505.2,327.8,-0.8,1.8,2471.433,13.29,0.001,225.0
2023-07-13T00:19:03,42.805,6.029,0.009,-0.019,-0.038,103.0,103.0,101.0,13.4,1505.2,345.9,-0.8,1.8,2471.404,13.29,0.021,154.7
2023-07-13T00:22:03,42.805,6.029,0.021,-0.012,-0.025,102.0,103.0,103.0,13.4,1505.2,345.9,-0.7,1.8,2471.448,13.29,0.024,119.7
2023-07-13T00:25:03,42.805,6.029,-0.004,-0.002,-0.024,103.0,103.0,101.0,13.3,1505.2,328.5,-0.8,1.8,2471.454,13.29,0.004,243.4
2023-07-13T00:28:03,42.805,6.029,0.0,-0.005,-0.004,102.0,103.0,101.0,13.4,1505.2,339.3,-0.8,1.8,2471.435,13.29,0.005,180.0
2023-07-13T00:31:03,42.805,6.029,-0.022,-0.001,-0.011,104.0,102.0,103.0,13.4,1505.2,332.4,-0.8,1.8,2471.483,13.29,0.022,267.4
2023-07-13T00:34:03,42.805,6.029,0.014,-0.015,-0.015,102.0,102.0,102.0,13.3,1505.2,345.0,-0.7,1.8,2471.386,13.29,0.02,137.0
2023-07-13T00:37:03,42.805,6.029,0.006,-0.003,-0.011,103.0,102.0,101.0,13.4,1505.2,321.0,-0.8,1.8,2471.434,13.29,0.006,116.6
2023-07-13T00:40:03,42.805,6.029,0.005,-0.004,-0.019,103.0,102.0,101.0,13.3,1505.2,344.6,-0.7,1.8,2471.437,13.29,0.006,128.7
2023-07-13T00:43:03,42.805,6.029,0.007,-0.009,-0.032,103.0,103.0,102.0,13.4,1505.2,345.9,-0.8,1.8,2471.403,13.29,0.011,142.1
2023-07-13T00:46:03,42.805,6.029,0.015,-0.007,-0.035,103.0,103.0,101.0,13.3,1505.2,322.7,-0.7,1.8,2471.466,13.29,0.016,115.0
2023-07-13T00:49:03,42.805,6.029,0.008,-0.016,-0.044,102.0,103.0,101.0,13.4,1505.2,341.9,-0.8,1.8,2471.471,13.29,0.017,153.4
2023-07-13T00:52:03,42.805,6.029,0.007,-0.014,-0.045,103.0,104.0,102.0,13.4,1505.2,349.3,-0.8,1.8,2471.452,13.29,0.015,153.4
2023-07-13T00:55:03,42.805,6.029,-0.011,0.007,-0.001,104.0,102.0,101.0,13.3,1505.2,349.5,-0.8,1.8,2471.416,13.29,0.013,302.5
2023-07-13T00:58:03,42.805,6.029,0.031,0.0,-0.011,103.0,103.0,101.0,13.4,1505.2,324.8,-0.8,1.8,2471.436,13.29,0.03,90.0
2023-07-13T01:04:03,42.805,6.029,-0.002,-0.064,-0.03,104.0,104.0,103.0,13.4,1505.2,353.4,-0.7,1.8,2471.483,13.28,0.064,181.8
2023-07-13T01:07:03,42.805,6.029,0.029,-0.019,0.02,103.0,103.0,101.0,13.3,1505.2,338.2,-0.8,1.8,2471.46,13.29,0.034,123.2
2023-07-13T01:10:03,42.805,6.029,0.017,-0.01,-0.02,104.0,101.0,102.0,13.4,1505.2,324.2,-0.8,1.8,2471.472,13.29,0.019,120.5
2023-07-13T01:13:03,42.805,6.029,0.016,-0.017,-0.061,104.0,102.0,101.0,13.3,1505.2,321.6,-0.8,1.8,2471.45,13.29,0.023,136.7
2023-07-13T01:16:03,42.805,6.029,0.017,-0.011,-0.006,103.0,104.0,102.0,13.4,1505.2,343.6,-0.8,1.8,2471.465,13.29,0.02,122.9
2023-07-13T01:19:03,42.805,6.029,0.021,-0.017,-0.036,103.0,105.0,103.0,13.3,1505.2,328.8,-0.7,1.8,2471.456,13.29,0.027,129.0
2023-07-13T01:22:02,42.805,6.029,0.008,-0.01,-0.035,105.0,101.0,103.0,13.4,1505.2,335.0,-0.8,1.8,2471.437,13.29,0.012,141.3
2023-07-13T01:25:03,42.805,6.029,0.019,0.004,-0.016,104.0,103.0,101.0,13.4,1505.2,350.9,-0.8,1.8,2471.443,13.29,0.019,78.1
2023-07-13T01:28:03,42.805,6.029,-0.002,-0.003,-0.032,103.0,103.0,102.0,13.4,1505.2,326.7,-0.7,1.8,2471.438,13.29,0.003,213.7
2023-07-13T01:31:03,42.805,6.029,0.025,-0.006,0.008,103.0,102.0,101.0,13.3,1505.2,338.8,-0.8,1.8,2471.474,13.29,0.025,103.5
2023-07-13T01:34:03,42.805,6.029,0.028,-0.016,-0.031,103.0,103.0,101.0,13.4,1505.2,332.4,-0.8,1.8,2471.49,13.29,0.032,119.7
2023-07-13T01:37:03,42.805,6.029,0.016,-0.013,-0.002,101.0,103.0,101.0,13.3,1505.2,350.1,-0.7,1.8,2471.409,13.29,0.02,129.1
2023-07-13T01:40:03,42.805,6.029,0.025,0.001,-0.028,103.0,103.0,102.0,13.3,1505.2,321.1,-0.8,1.8,2471.457,13.29,0.025,87.7
2023-07-13T01:43:03,42.805,6.029,0.013,-0.012,-0.016,103.0,103.0,102.0,13.3,1505.2,330.2,-0.7,1.8,2471.442,13.29,0.017,132.7
2023-07-13T01:46:03,42.805,6.029,0.0,-0.007,-0.019,103.0,103.0,102.0,13.4,1505.2,333.4,-0.7,1.8,2471.442,13.29,0.007,180.0
2023-07-13T01:49:03,42.805,6.029,-0.018,-0.011,-0.034,103.0,104.0,101.0,13.4,1505.2,350.1,-0.8,1.8,2471.489,13.29,0.021,238.6
2023-07-13T01:52:03,42.805,6.029,0.04,-0.046,-0.037,102.0,105.0,101.0,13.4,1505.2,331.7,-0.8,1.8,2471.452,13.29,0.06,139.0
2023-07-13T01:55:03,42.805,6.029,0.005,-0.032,-0.014,105.0,102.0,102.0,13.3,1505.2,329.3,-0.7,1.8,2471.457,13.29,0.032,171.1
2023-07-13T01:58:03,42.805,6.029,0.016,0.0,-0.014,103.0,103.0,102.0,13.4,1505.2,350.7,-0.7,1.8,2471.459,13.29,0.016,90.0
2023-07-13T02:04:03,42.805,6.029,0.009,-0.001,-0.003,103.0,102.0,102.0,13.4,1505.2,342.5,-0.8,1.8,2471.51,13.28,0.009,96.3
2023-07-13T02:07:03,42.805,6.029,0.024,-0.016,-0.002,102.0,103.0,103.0,13.4,1505.2,335.7,-0.8,1.8,2471.478,13.29,0.028,123.7
2023-07-13T02:10:03,42.805,6.029,0.024,-0.019,0.004,105.0,103.0,101.0,13.3,1505.2,338.2,-0.8,1.8,2471.528,13.29,0.03,128.4
2023-07-13T02:13:03,42.805,6.029,0.008,-0.021,-0.048,103.0,103.0,103.0,13.3,1505.2,338.7,-0.8,1.8,2471.477,13.29,0.022,159.1
2023-07-13T02:16:03,42.805,6.029,0.025,-0.008,-0.038,105.0,102.0,101.0,13.4,1505.2,327.8,-0.7,1.8,2471.458,13.29,0.026,107.7
2023-07-13T02:19:03,42.805,6.029,0.006,-0.006,-0.052,102.0,103.0,102.0,13.4,1505.2,340.1,-0.8,1.8,2471.486,13.29,0.008,135.0
2023-07-13T02:22:03,42.805,6.029,0.023,-0.013,-0.032,103.0,103.0,103.0,13.4,1505.2,333.8,-0.8,1.8,2471.486,13.29,0.026,119.5
2023-07-13T02:25:03,42.805,6.029,0.023,-0.024,-0.025,103.0,103.0,102.0,13.4,1505.2,348.2,-0.8,1.8,2471.473,13.29,0.033,136.2
2023-07-13T02:28:03,42.805,6.029,0.022,-0.016,-0.026,103.0,103.0,102.0,13.4,1505.2,353.5,-0.8,1.8,2471.491,13.29,0.027,126.0
2023-07-13T02:31:03,42.805,6.029,0.001,-0.021,-0.014,103.0,103.0,102.0,13.4,1505.2,352.6,-0.8,1.8,2471.439,13.29,0.021,177.3
2023-07-13T02:34:03,42.805,6.029,0.019,-0.017,-0.015,103.0,104.0,102.0,13.4,1505.2,321.4,-0.8,1.8,2471.462,13.29,0.025,131.8
2023-07-13T02:37:03,42.805,6.029,0.0,-0.011,-0.058,102.0,103.0,101.0,13.3,1505.2,322.7,-0.8,1.8,2471.462,13.29,0.011,180.0
2023-07-13T02:40:03,42.805,6.029,0.016,-0.005,0.009,104.0,102.0,102.0,13.4,1505.2,333.4,-0.8,1.8,2471.451,13.29,0.016,107.4
2023-07-13T02:43:03,42.805,6.029,0.008,-0.025,-0.031,103.0,102.0,102.0,13.4,1505.2,344.7,-0.8,1.9,2471.443,13.29,0.026,162.3
2023-07-13T02:46:03,42.805,6.029,0.0,-0.025,-0.006,103.0,103.0,101.0,13.3,1505.2,347.0,-0.8,1.8,2471.474,13.29,0.025,180.0
2023-07-13T02:49:03,42.805,6.029,0.028,-0.011,-0.01,104.0,103.0,101.0,13.4,1505.2,349.7,-0.7,1.8,2471.423,13.29,0.03,111.4
2023-07-13T02:52:03,42.805,6.029,0.001,-0.018,-0.006,104.0,103.0,101.0,13.4,1505.2,342.3,-0.8,1.8,2471.482,13.29,0.018,176.8
2023-07-13T02:55:03,42.805,6.029,0.035,-0.005,-0.012,103.0,103.0,103.0,13.4,1505.2,320.4,-0.8,1.8,2471.491,13.29,0.035,98.1
2023-07-13T02:58:03,42.805,6.029,0.012,0.002,0.01,103.0,103.0,102.0,13.4,1505.2,343.3,-0.8,1.8,2471.515,13.29,0.012,80.5
2023-07-13T03:04:03,42.805,6.029,0.001,-0.02,-0.046,103.0,103.0,102.0,13.4,1505.2,336.5,-0.8,1.8,2471.552,13.28,0.02,177.1
2023-07-13T03:07:03,42.805,6.029,0.008,0.0,-0.023,105.0,103.0,101.0,13.4,1505.2,348.8,-0.8,1.8,2471.53,13.29,0.008,90.0
2023-07-13T03:10:03,42.805,6.029,0.009,-0.019,-0.02,104.0,104.0,100.0,13.3,1505.2,340.9,-0.8,1.8,2471.53,13.29,0.021,154.7
2023-07-13T03:13:03,42.805,6.029,0.007,-0.016,-0.016,105.0,103.0,102.0,13.4,1505.2,342.2,-0.8,1.8,2471.488,13.29,0.017,156.4
2023-07-13T03:16:03,42.805,6.029,0.009,-0.014,-0.011,104.0,104.0,101.0,13.3,1505.2,335.6,-0.8,1.8,2471.497,13.29,0.016,147.3
2023-07-13T03:19:03,42.805,6.029,-0.011,-0.032,-0.027,102.0,102.0,102.0,13.4,1505.2,329.0,-0.8,1.8,2471.514,13.29,0.033,199.0
2023-07-13T03:22:03,42.805,6.029,0.012,-0.003,-0.023,102.0,103.0,102.0,13.4,1505.2,353.1,-0.8,1.8,2471.516,13.29,0.012,104.0
2023-07-13T03:25:03,42.805,6.029,0.013,-0.026,0.001,105.0,103.0,102.0,13.4,1505.2,343.6,-0.8,1.8,2471.485,13.29,0.029,153.4
2023-07-13T03:28:03,42.805,6.029,0.0,-0.008,-0.007,103.0,103.0,102.0,13.3,1505.2,342.3,-0.8,1.9,2471.493,13.29,0.008,180.0
2023-07-13T03:31:03,42.805,6.029,0.021,-0.014,-0.023,103.0,102.0,102.0,13.4,1505.2,343.7,-0.8,1.8,2471.443,13.29,0.025,123.7
2023-07-13T03:34:03,42.805,6.029,0.005,-0.03,-0.03,103.0,103.0,103.0,13.4,1505.2,346.2,-0.7,1.8,2471.472,13.29,0.03,170.5
2023-07-13T03:37:03,42.805,6.029,0.013,-0.01,-0.022,102.0,103.0,101.0,13.3,1505.2,330.3,-0.8,1.8,2471.496,13.29,0.016,127.6
2023-07-13T03:40:03,42.805,6.029,0.018,-0.012,-0.008,103.0,103.0,101.0,13.4,1505.2,333.4,-0.8,1.8,2471.449,13.29,0.021,123.7
2023-07-13T03:43:03,42.805,6.029,0.007,-0.001,0.01,104.0,104.0,102.0,13.3,1505.2,353.0,-0.8,1.8,2471.463,13.29,0.007,98.1
2023-07-13T03:46:03,42.805,6.029,0.014,-0.017,-0.001,104.0,102.0,102.0,13.4,1505.2,352.0,-0.7,1.8,2471.464,13.29,0.022,140.5
2023-07-13T03:49:03,42.805,6.029,0.019,-0.012,-0.035,105.0,103.0,102.0,13.4,1505.2,351.8,-0.8,1.8,2471.486,13.29,0.022,122.3
2023-07-13T03:52:03,42.805,6.029,0.004,-0.016,-0.049,103.0,102.0,102.0,13.4,1505.2,345.9,-0.8,1.8,2471.429,13.29,0.016,166.0
2023-07-13T03:55:03,42.805,6.029,0.0,-0.02,-0.013,104.0,103.0,101.0,13.4,1505.2,324.0,-0.8,1.8,2471.471,13.29,0.02,180.0
2023-07-13T03:58:03,42.805,6.029,0.018,-0.021,-0.032,102.0,102.0,102.0,13.3,1505.2,341.9,-0.8,1.8,2471.488,13.29,0.027,139.4
2023-07-13T04:04:03,42.805,6.029,0.006,-0.011,-0.04,102.0,102.0,101.0,13.4,1505.2,350.7,-0.7,1.8,2471.514,13.28,0.012,151.4
2023-07-13T04:07:03,42.805,6.029,0.019,-0.045,-0.051,102.0,103.0,101.0,13.3,1505.2,352.0,-0.8,1.8,2471.528,13.29,0.048,157.1
2023-07-13T04:10:03,42.805,6.029,-0.007,-0.006,-0.009,101.0,102.0,101.0,13.3,1505.2,335.7,-0.8,1.8,2471.529,13.29,0.009,229.4
2023-07-13T04:13:03,42.805,6.029,0.013,-0.009,0.012,103.0,102.0,102.0,13.4,1505.2,344.2,-0.7,1.8,2471.525,13.29,0.015,124.7
2023-07-13T04:16:03,42.805,6.029,0.014,-0.023,-0.017,103.0,102.0,102.0,13.4,1505.2,327.0,-0.7,1.8,2471.477,13.29,0.026,148.7
2023-07-13T04:19:03,42.805,6.029,0.054,-0.01,-0.021,102.0,103.0,102.0,13.3,1505.2,330.3,-0.7,1.8,2471.527,13.29,0.054,100.5
2023-07-13T04:22:03,42.805,6.029,0.023,-0.006,-0.037,102.0,102.0,102.0,13.4,1505.2,349.3,-0.8,1.8,2471.48,13.29,0.023,104.6
2023-07-13T04:25:03,42.805,6.029,0.018,-0.001,0.0,103.0,103.0,102.0,13.4,1505.2,347.0,-0.8,1.8,2471.488,13.29,0.018,93.2
2023-07-13T04:28:03,42.805,6.029,0.004,-0.024,-0.03,102.0,102.0,102.0,13.4,1505.2,346.5,-0.7,1.8,2471.464,13.29,0.024,170.5
2023-07-13T04:31:03,42.805,6.029,0.018,-0.008,-0.022,104.0,102.0,102.0,13.4,1505.2,335.1,-0.8,1.8,2471.466,13.29,0.019,114.0
2023-07-13T04:34:03,42.805,6.029,-0.007,-0.013,-0.03,102.0,103.0,102.0,13.4,1505.2,344.5,-0.8,1.9,2471.484,13.29,0.014,208.3
2023-07-13T04:37:03,42.805,6.029,0.046,-0.031,-0.005,100.0,103.0,102.0,13.4,1505.2,342.7,-0.7,1.8,2471.479,13.29,0.055,124.0
2023-07-13T04:40:03,42.805,6.029,0.012,-0.02,-0.036,102.0,100.0,102.0,13.3,1505.2,328.8,-0.7,1.8,2471.454,13.29,0.023,149.0
2023-07-13T04:43:03,42.805,6.029,0.0,-0.02,0.0,103.0,101.0,101.0,13.4,1505.2,348.9,-0.8,1.8,2471.491,13.29,0.02,180.0
2023-07-13T04:46:03,42.805,6.029,0.017,-0.016,-0.042,102.0,103.0,102.0,13.4,1505.2,326.0,-0.8,1.8,2471.476,13.29,0.023,133.3
2023-07-13T04:49:03,42.805,6.029,0.028,-0.012,-0.03,102.0,103.0,102.0,13.4,1505.2,330.7,-0.7,1.8,2471.474,13.29,0.03,113.2
2023-07-13T04:52:03,42.805,6.029,0.02,-0.045,-0.009,103.0,102.0,101.0,13.3,1505.2,347.1,-0.8,1.8,2471.46,13.29,0.049,156.0
2023-07-13T04:55:03,42.805,6.029,0.018,-0.023,-0.027,102.0,103.0,101.0,13.4,1505.2,353.1,-0.8,1.8,2471.489,13.29,0.029,142.0
2023-07-13T04:58:03,42.805,6.029,0.035,0.0,-0.009,103.0,102.0,102.0,13.4,1505.2,329.0,-0.8,1.8,2471.501,13.29,0.035,90.0
2023-07-13T05:04:03,42.805,6.029,0.021,-0.019,-0.029,103.0,102.0,101.0,13.4,1505.2,331.3,-0.8,1.8,2471.508,13.28,0.028,132.1
2023-07-13T05:07:03,42.805,6.029,0.015,-0.01,-0.003,103.0,103.0,101.0,13.4,1505.2,340.0,-0.8,1.8,2471.505,13.29,0.018,123.7
2023-07-13T05:10:03,42.805,6.029,0.018,-0.008,0.001,102.0,103.0,101.0,13.4,1505.2,335.5,-0.7,1.8,2471.512,13.29,0.019,114.0
2023-07-13T05:13:03,42.805,6.029,0.015,-0.034,-0.067,105.0,103.0,101.0,13.3,1505.2,338.4,-0.7,1.8,2471.502,13.29,0.037,156.2
2023-07-13T05:16:03,42.805,6.029,0.003,-0.02,-0.036,104.0,103.0,101.0,13.4,1505.2,350.9,-0.8,1.8,2471.489,13.29,0.02,171.5
2023-07-13T05:19:03,42.805,6.029,0.013,0.002,-0.01,102.0,103.0,102.0,13.3,1505.2,348.4,-0.8,1.8,2471.509,13.29,0.013,81.3
2023-07-13T05:22:03,42.805,6.029,0.026,-0.03,-0.033,103.0,102.0,101.0,13.3,1505.2,339.7,-0.7,1.8,2471.472,13.29,0.039,139.1
2023-07-13T05:25:03,42.805,6.029,0.013,-0.02,-0.018,102.0,104.0,102.0,13.4,1505.2,345.4,-0.8,1.8,2471.488,13.29,0.023,147.0
2023-07-13T05:28:03,42.805,6.029,0.037,-0.014,-0.061,103.0,102.0,102.0,13.4,1505.2,329.3,-0.8,1.8,2471.469,13.29,0.039,110.7
2023-07-13T05:31:03,42.805,6.029,0.011,-0.025,-0.052,102.0,102.0,101.0,13.4,1505.2,338.0,-0.8,1.8,2471.493,13.29,0.027,156.3
2023-07-13T05:34:03,42.805,6.029,0.024,-0.026,-0.011,104.0,102.0,102.0,13.4,1505.2,343.0,-0.8,1.8,2471.436,13.29,0.035,137.3
2023-07-13T05:37:03,42.805,6.029,0.009,-0.014,-0.023,103.0,103.0,102.0,13.3,1505.2,342.3,-0.8,1.8,2471.467,13.29,0.016,147.3
2023-07-13T05:40:03,42.805,6.029,0.02,-0.011,-0.023,104.0,102.0,102.0,13.3,1505.2,330.2,-0.8,1.8,2471.462,13.29,0.022,118.8
2023-07-13T05:43:03,42.805,6.029,0.013,0.003,0.003,104.0,101.0,102.0,13.4,1505.2,336.8,-0.8,1.8,2471.446,13.29,0.013,77.0
2023-07-13T05:46:03,42.805,6.029,-0.012,-0.004,-0.026,103.0,103.0,101.0,13.3,1505.2,341.9,-0.8,1.9,2471.477,13.29,0.012,251.6
2023-07-13T05:49:03,42.805,6.029,0.032,-0.032,-0.026,103.0,103.0,101.0,13.4,1505.2,343.4,-0.8,1.8,2471.484,13.29,0.045,135.0
2023-07-13T05:52:03,42.805,6.029,0.0,-0.006,0.001,102.0,102.0,102.0,13.4,1505.2,343.9,-0.8,1.8,2471.434,13.29,0.006,180.0
2023-07-13T05:55:03,42.805,6.029,0.012,-0.012,-0.033,103.0,102.0,102.0,13.3,1505.2,339.8,-0.7,1.8,2471.451,13.29,0.016,135.0
2023-07-13T05:58:03,42.805,6.029,0.016,0.001,-0.032,102.0,104.0,101.0,13.3,1505.2,335.2,-0.8,1.8,2471.445,13.29,0.016,86.4
2023-07-13T06:04:03,42.805,6.029,0.003,-0.002,-0.011,103.0,103.0,101.0,13.3,1505.2,329.0,-0.8,1.8,2471.485,13.28,0.003,123.7
2023-07-13T06:07:03,42.805,6.029,0.013,-0.008,-0.035,103.0,103.0,101.0,13.4,1505.2,333.4,-0.8,1.8,2471.486,13.29,0.015,121.6
2023-07-13T06:10:03,42.805,6.029,0.021,-0.013,0.019,103.0,102.0,102.0,13.3,1505.2,350.1,-0.8,1.8,2471.454,13.29,0.024,121.8
2023-07-13T06:13:03,42.805,6.029,-0.007,-0.023,-0.047,103.0,102.0,101.0,13.3,1505.2,340.8,-0.8,1.8,2471.439,13.29,0.024,196.9
2023-07-13T06:16:03,42.805,6.029,0.041,-0.028,-0.01,103.0,102.0,102.0,13.3,1505.2,339.5,-0.7,1.8,2471.46,13.29,0.049,124.3
2023-07-13T06:19:03,42.805,6.029,0.015,-0.024,-0.014,103.0,103.0,103.0,13.3,1505.2,352.1,-0.7,1.8,2471.458,13.29,0.028,148.0
2023-07-13T06:22:03,42.805,6.029,0.007,-0.022,-0.023,103.0,103.0,101.0,13.3,1505.2,343.0,-0.8,1.8,2471.468,13.29,0.023,162.4
2023-07-13T06:25:03,42.805,6.029,0.028,-0.015,-0.016,103.0,103.0,102.0,13.3,1505.2,337.6,-0.8,1.8,2471.426,13.29,0.031,118.2
2023-07-13T06:28:03,42.805,6.029,0.012,-0.018,-0.035,103.0,103.0,102.0,13.4,1505.2,336.3,-0.8,1.8,2471.501,13.29,0.021,146.3
2023-07-13T06:31:03,42.805,6.029,0.028,-0.025,-0.019,103.0,102.0,103.0,13.4,1505.2,336.8,-0.8,1.8,2471.433,13.29,0.037,131.8
2023-07-13T06:34:03,42.805,6.029,0.0,-0.009,-0.04,103.0,104.0,101.0,13.4,1505.2,345.7,-0.8,1.8,2471.476,13.29,0.009,180.0
2023-07-13T06:37:03,42.805,6.029,0.022,-0.019,-0.002,102.0,102.0,101.0,13.4,1505.2,340.2,-0.7,1.8,2471.453,13.29,0.029,130.8
2023-07-13T06:40:03,42.805,6.029,0.018,-0.031,-0.018,103.0,102.0,102.0,13.4,1505.2,344.7,-0.8,1.8,2471.428,13.29,0.035,149.9
2023-07-13T06:43:03,42.805,6.029,0.03,-0.019,-0.005,102.0,102.0,102.0,13.3,1505.2,329.8,-0.8,1.8,2471.464,13.29,0.035,122.3
2023-07-13T06:46:03,42.805,6.029,0.017,-0.025,-0.01,103.0,101.0,101.0,13.3,1505.2,343.7,-0.7,1.8,2471.441,13.29,0.03,145.8
2023-07-13T06:49:03,42.805,6.029,0.001,-0.028,-0.003,103.0,103.0,101.0,13.4,1505.2,341.5,-0.7,1.8,2471.426,13.29,0.028,178.0
2023-07-13T06:52:03,42.805,6.029,0.007,-0.022,-0.02,102.0,103.0,101.0,13.4,1505.2,331.6,-0.8,1.8,2471.467,13.29,0.023,162.4
2023-07-13T06:55:03,42.805,6.029,0.029,-0.032,-0.043,103.0,104.0,102.0,13.3,1505.2,331.2,-0.8,1.8,2471.451,13.29,0.043,137.8
2023-07-13T06:58:03,42.805,6.029,0.014,-0.012,-0.027,104.0,103.0,101.0,13.3,1505.2,328.6,-0.7,1.8,2471.443,13.29,0.018,130.6
2023-07-13T07:04:03,42.805,6.029,0.014,-0.049,-0.03,104.0,103.0,102.0,13.3,1505.2,333.9,-0.8,1.8,2471.48,13.28,0.05,164.1
2023-07-13T07:07:03,42.805,6.029,0.009,-0.013,-0.034,104.0,103.0,102.0,13.3,1505.2,333.0,-0.8,1.8,2471.426,13.29,0.015,145.3
2023-07-13T07:10:03,42.805,6.029,0.028,-0.014,-0.032,104.0,104.0,102.0,13.4,1505.2,332.5,-0.7,1.8,2471.455,13.29,0.031,116.6
2023-07-13T07:13:03,42.805,6.029,0.026,-0.004,-0.026,104.0,103.0,102.0,13.4,1505.2,330.2,-0.8,1.8,2471.469,13.29,0.026,98.7
2023-07-13T07:16:03,42.805,6.029,0.009,-0.029,-0.026,104.0,103.0,102.0,13.4,1505.2,343.5,-0.8,1.8,2471.435,13.29,0.03,162.8
2023-07-13T07:19:03,42.805,6.029,0.028,-0.022,-0.007,102.0,103.0,102.0,13.4,1505.2,326.0,-0.7,1.8,2471.445,13.29,0.035,128.2
2023-07-13T07:22:03,42.805,6.029,0.04,-0.035,-0.027,103.0,103.0,102.0,13.4,1505.2,334.6,-0.8,1.8,2471.433,13.29,0.053,131.2
2023-07-13T07:25:03,42.805,6.029,-0.011,-0.027,-0.043,103.0,102.0,102.0,13.4,1505.2,335.8,-0.7,1.8,2471.437,13.29,0.029,202.2
2023-07-13T07:28:03,42.805,6.029,0.037,-0.019,-0.009,103.0,102.0,102.0,13.4,1505.2,336.6,-0.7,1.8,2471.439,13.29,0.041,117.2
2023-07-13T07:31:03,42.805,6.029,0.023,-0.036,-0.034,103.0,103.0,101.0,13.4,1505.2,344.3,-0.8,1.8,2471.434,13.29,0.042,147.4
2023-07-13T07:34:03,42.805,6.029,0.004,-0.015,-0.012,104.0,103.0,102.0,13.4,1505.2,346.7,-0.8,1.8,2471.401,13.29,0.015,165.1
2023-07-13T07:37:03,42.805,6.029,0.013,-0.037,-0.052,103.0,102.0,102.0,13.4,1505.2,341.9,-0.8,1.8,2471.412,13.29,0.039,160.6
2023-07-13T07:40:03,42.805,6.029,0.026,-0.014,-0.027,103.0,102.0,101.0,13.4,1505.2,331.0,-0.7,1.8,2471.4,13.29,0.029,118.3
2023-07-13T07:43:03,42.805,6.029,0.026,-0.027,-0.024,103.0,102.0,102.0,13.4,1505.2,351.2,-0.8,1.8,2471.375,13.29,0.037,136.1
2023-07-13T07:46:03,42.805,6.029,0.009,-0.016,-0.025,103.0,101.0,103.0,13.4,1505.2,324.2,-0.8,1.8,2471.418,13.29,0.018,150.6
2023-07-13T07:49:03,42.805,6.029,0.011,0.0,-0.026,103.0,103.0,101.0,13.3,1505.2,323.6,-0.8,1.8,2471.403,13.29,0.011,90.0
2023-07-13T07:52:03,42.805,6.029,0.026,-0.01,-0.003,104.0,103.0,101.0,13.4,1505.2,331.9,-0.8,1.8,2471.436,13.29,0.027,111.0
2023-07-13T07:55:03,42.805,6.029,0.021,0.0,-0.026,102.0,103.0,101.0,13.4,1505.2,337.6,-0.8,1.8,2471.377,13.29,0.021,90.0
2023-07-13T07:58:03,42.805,6.029,0.047,-0.01,0.0,103.0,104.0,101.0,13.3,1505.2,322.1,-0.8,1.8,2471.415,13.29,0.048,102.0
2023-07-13T08:04:03,42.805,6.029,0.009,-0.043,-0.022,103.0,101.0,102.0,13.4,1505.2,353.2,-0.7,1.8,2471.449,13.28,0.043,168.2
2023-07-13T08:07:03,42.805,6.029,0.036,0.006,-0.012,102.0,102.0,102.0,13.4,1505.2,332.1,-0.8,1.8,2471.45,13.28,0.036,80.5
2023-07-13T08:10:03,42.805,6.029,0.01,-0.005,-0.043,102.0,102.0,102.0,13.4,1505.2,347.2,-0.8,1.8,2471.463,13.29,0.011,116.6
2023-07-13T08:13:03,42.805,6.029,0.026,-0.032,-0.038,103.0,102.0,103.0,13.4,1505.2,334.2,-0.8,1.8,2471.392,13.29,0.041,140.9
2023-07-13T08:16:03,42.805,6.029,0.029,-0.039,-0.036,102.0,103.0,101.0,13.3,1505.2,330.3,-0.8,1.8,2471.387,13.29,0.048,143.4
2023-07-13T08:19:03,42.805,6.029,0.012,-0.001,-0.012,103.0,102.0,101.0,13.4,1505.2,335.1,-0.7,1.8,2471.369,13.29,0.012,94.8
2023-07-13T08:22:03,42.805,6.029,0.025,-0.017,-0.013,103.0,103.0,102.0,13.4,1505.2,349.5,-0.8,1.8,2471.39,13.29,0.03,124.2
2023-07-13T08:25:03,42.805,6.029,0.017,-0.018,-0.032,103.0,103.0,101.0,13.3,1505.2,337.3,-0.7,1.8,2471.411,13.29,0.024,136.6
2023-07-13T08:28:03,42.805,6.029,0.007,0.0,0.0,103.0,102.0,102.0,13.4,1505.2,348.4,-0.8,1.8,2471.391,13.29,0.007,90.0
2023-07-13T08:31:03,42.805,6.029,0.027,-0.029,-0.04,103.0,102.0,102.0,13.4,1505.2,322.2,-0.8,1.9,2471.366,13.29,0.039,137.0
2023-07-13T08:34:03,42.805,6.029,0.03,-0.023,-0.025,102.0,103.0,101.0,13.3,1505.2,335.8,-0.8,1.8,2471.362,13.29,0.037,127.5
2023-07-13T08:37:03,42.805,6.029,0.024,-0.011,-0.01,103.0,103.0,102.0,13.4,1505.2,333.0,-0.8,1.8,2471.409,13.29,0.026,114.6
2023-07-13T08:40:03,42.805,6.029,0.022,-0.035,-0.054,103.0,104.0,101.0,13.4,1505.2,333.4,-0.8,1.8,2471.392,13.29,0.041,147.8
2023-07-13T08:43:03,42.805,6.029,0.032,-0.007,-0.014,103.0,102.0,102.0,13.4,1505.2,324.2,-0.7,1.8,2471.375,13.29,0.032,102.3
2023-07-13T08:46:03,42.805,6.029,0.031,-0.009,-0.027,103.0,104.0,102.0,13.4,1505.2,323.7,-0.8,1.8,2471.376,13.29,0.032,106.2
2023-07-13T08:49:03,42.805,6.029,-0.011,-0.007,-0.039,104.0,103.0,101.0,13.3,1505.2,333.8,-0.7,1.8,2471.371,13.29,0.013,237.5
2023-07-13T08:52:03,42.805,6.029,0.007,-0.03,-0.038,104.0,102.0,102.0,13.4,1505.2,334.8,-0.7,1.8,2471.347,13.29,0.03,166.9
2023-07-13T08:55:03,42.805,6.029,0.029,-0.013,-0.025,103.0,103.0,102.0,13.4,1505.2,329.0,-0.8,1.8,2471.358,13.29,0.031,114.1
2023-07-13T08:58:03,42.805,6.029,0.023,-0.005,-0.003,104.0,102.0,102.0,13.3,1505.2,323.4,-0.8,1.8,2471.357,13.29,0.023,102.3
2023-07-13T09:04:03,42.805,6.029,0.006,-0.02,0.005,103.0,103.0,102.0,13.4,1505.2,346.2,-0.8,1.8,2471.416,13.28,0.02,163.3
2023-07-13T09:07:03,42.805,6.029,0.008,-0.017,-0.042,102.0,102.0,102.0,13.4,1505.2,340.5,-0.8,1.8,2471.438,13.28,0.018,154.8
2023-07-13T09:10:03,42.805,6.029,0.029,-0.024,-0.014,103.0,102.0,102.0,13.4,1505.2,348.2,-0.7,1.8,2471.412,13.29,0.037,129.6
2023-07-13T09:13:03,42.805,6.029,0.008,-0.005,-0.012,102.0,103.0,102.0,13.3,1505.2,329.2,-0.8,1.8,2471.374,13.29,0.009,122.0
2023-07-13T09:16:03,42.805,6.029,0.015,-0.033,-0.029,102.0,102.0,101.0,13.3,1505.2,341.9,-0.8,1.8,2471.344,13.29,0.036,155.6
2023-07-13T09:19:03,42.805,6.029,0.029,-0.018,-0.016,103.0,101.0,103.0,13.4,1505.2,334.4,-0.8,1.8,2471.393,13.29,0.034,121.8
2023-07-13T09:22:03,42.805,6.029,0.0,-0.018,-0.024,102.0,102.0,101.0,13.3,1505.2,331.6,-0.8,1.8,2471.362,13.29,0.018,180.0
2023-07-13T09:25:03,42.805,6.029,0.004,-0.016,-0.034,102.0,103.0,102.0,13.3,1505.2,344.6,-0.8,1.8,2471.36,13.29,0.016,166.0
2023-07-13T09:28:03,42.805,6.029,0.034,-0.018,-0.002,102.0,103.0,102.0,13.4,1505.2,347.7,-0.7,1.8,2471.397,13.29,0.038,117.9
2023-07-13T09:31:03,42.805,6.029,0.01,-0.01,-0.013,102.0,102.0,101.0,13.4,1505.2,337.2,-0.8,1.8,2471.344,13.29,0.014,135.0
2023-07-13T09:34:03,42.805,6.029,0.02,-0.009,-0.014,104.0,103.0,101.0,13.3,1505.2,331.3,-0.8,1.8,2471.38,13.29,0.021,114.2
2023-07-13T09:37:03,42.805,6.029,0.019,-0.019,-0.04,102.0,102.0,102.0,13.3,1505.2,344.6,-0.8,1.8,2471.378,13.29,0.026,135.0
2023-07-13T09:40:03,42.805,6.029,0.025,-0.031,-0.005,103.0,102.0,103.0,13.4,1505.2,352.0,-0.8,1.8,2471.396,13.29,0.039,141.1
2023-07-13T09:43:03,42.805,6.029,0.008,-0.009,-0.038,103.0,102.0,102.0,13.4,1505.2,321.8,-0.8,1.8,2471.337,13.29,0.012,138.4
2023-07-13T09:46:03,42.805,6.029,0.003,-0.002,0.003,103.0,102.0,100.0,13.4,1505.2,331.1,-0.7,1.8,2471.328,13.29,0.003,123.7
2023-07-13T09:49:03,42.805,6.029,0.029,-0.027,-0.031,103.0,102.0,101.0,13.4,1505.2,339.5,-0.8,1.8,2471.343,13.29,0.039,133.0
2023-07-13T09:52:03,42.805,6.029,0.007,-0.016,-0.018,102.0,102.0,101.0,13.4,1505.2,327.4,-0.8,1.8,2471.353,13.29,0.017,156.4
2023-07-13T09:55:03,42.805,6.029,0.013,-0.015,-0.012,102.0,102.0,102.0,13.4,1505.2,322.7,-0.8,1.8,2471.382,13.29,0.019,139.1